Location: Belvedere Heights
(33.9836°N, 117.3109°W)
Time: 09:25:58
(UTC+00:00)

ATLAS CENTAUR R/B - Pass Details

Date: 21 March 2023
Orbit: 453 x 639 km, 64.7° (Epoch: 13 May)

Event Time Altitude Azimuth Distance (km) Brightness Sun altitude
Exits shadow 12:33:09 20° 306° (NW) 1,451 3.1 -17.0°
Maximum altitude 12:33:15 20° 308° (NW) 1,449 3.1 -17.0°
Drops below altitude 10° 12:36:34 10° 356° (N) 1,967 4.2 -16.3°
Sets 12:39:18 0° 13° (NNE) 2,841 5.3 -15.8°
